Flag for France Weather past 2 weeks in Marigot, Saint Martin, France

Now
79 °F

Passing clouds.


Feels Like: 81 °F
Forecast: 78 / 81 °F
Wind: 14 mph from East

Location: Juliana Airport - Saint Maarten

Current Time: Feb 26, 2015 at 9:29:15 PM

Latest Report: Feb 26, 2015 at 9:00 PM


Visibility: N/A

Pressure: 30.07 "Hg

Humidity: 65%

Dew point: 66 °F

Location of MarigotLocation

Historic Weather in Marigot — Graph

°F

Marigot temperature yesterday

Maximum temperature yesterday: 82 °F (at 11:00 AM)
Minimum temperature yesterday: 77 °F (at 1:00 AM)
Average temperature yesterday: 79 °F

Past Weeks' High & Low Weather Summary

 TemperatureHumidityPressure
High84 °F (Feb 13, 1:00 PM)89% (Feb 12, 4:00 AM)30.12 "Hg (Feb 12, 4:00 AM)
Low75 °F (Feb 12, 4:00 AM)55% (Feb 19, 2:00 PM)29.89 "Hg (Feb 12, 2:00 AM)
Average80 °F72%30.03 "Hg
* Reported Feb 11 8:00 PM — Feb 26 8:00 PM, Marigot, Weather by CustomWeather, © 2015

Note: Actual official high and low records may vary slightly from our data, if they occured in-between our weather recording intervals... More about our weather records

Advertising

Marigot weather history for previous 24 hours

 ConditionsComfort  
Time TempWeatherWind HumidityBarometerVisibility
8:00 PM
Thu, Feb 26
79 °FScattered showers. Passing clouds.16 mph65%30.07 "HgN/A
7:00 PM79 °FPassing clouds.14 mph65%30.04 "HgN/A
6:00 PM79 °FPassing clouds.15 mph65%30.04 "HgN/A
5:00 PM81 °FScattered showers. Scattered clouds.16 mph66%30.01 "HgN/A
4:00 PM82 °FScattered showers. Partly sunny.14 mph62%30.01 "HgN/A
3:00 PM82 °FScattered clouds.15 mph62%30.01 "HgN/A
2:00 PM82 °FScattered clouds.15 mph62%30.04 "HgN/A
1:00 PM82 °FScattered clouds.15 mph62%30.04 "HgN/A
12:00 PM82 °FScattered clouds.17 mph62%30.07 "HgN/A
11:00 AM81 °FScattered clouds.16 mph66%30.09 "HgN/A
10:00 AM82 °FScattered clouds.15 mph62%30.09 "HgN/A
9:00 AM81 °FScattered clouds.14 mph62%30.09 "HgN/A
8:00 AM79 °FScattered clouds.15 mph65%30.09 "HgN/A
7:00 AM77 °FPassing clouds.16 mph65%30.07 "HgN/A
6:00 AM77 °FPassing clouds.16 mph69%30.04 "HgN/A
5:00 AM77 °FPassing clouds.14 mph74%30.04 "HgN/A
3:00 AM79 °FPassing clouds.15 mph70%30.04 "HgN/A
2:00 AM77 °FSprinkles. Passing clouds.15 mph74%30.04 "HgN/A
1:00 AM79 °FPassing clouds.12 mph79%30.07 "HgN/A
12:00 AM79 °FPassing clouds.12 mph74%30.07 "HgN/A
10:00 PM
Wed, Feb 25
79 °FPassing clouds.13 mph74%30.07 "HgN/A
9:00 PM79 °FPassing clouds.9 mph74%30.07 "HgN/A
Weather by CustomWeather, © 2015

See weather overviewHow to use our weather pages